GMT,Max TemperatureF,Mean TemperatureF,Min TemperatureF,Max Dew PointF,MeanDew PointF,Min DewpointF,Max Humidity, Mean Humidity, Min Humidity, Max Sea Level PressureIn, Mean Sea Level PressureIn, Min Sea Level PressureIn, Max VisibilityMiles, Mean VisibilityMiles, Min VisibilityMiles, Max Wind SpeedMPH, Mean Wind SpeedMPH, Max Gust SpeedMPH,PrecipitationIn, CloudCover, Events, WindDirDegrees
2012-11-1,51,44,37,43,38,36,100,83,60,29.18,28.98,28.82,6,6,6,17,7,31,0.02,3,Rain,237
2012-11-2,51,44,37,41,38,35,93,81,53,29.39,29.31,29.18,6,6,6,17,10,,0.08,2,Rain,215
2012-11-3,50,42,33,39,37,34,100,79,57,29.50,29.43,29.36,6,6,6,15,7,28,0.00,1,,223
2012-11-4,50,44,37,45,41,37,100,87,73,29.39,29.31,29.24,6,6,5,9,6,,0.12,3,Rain,165
2012-11-5,49,41,33,43,38,32,100,87,56,30.06,29.77,29.39,6,6,1,14,5,,0.00,2,Fog,11
2012-11-6,53,42,30,47,42,28,100,87,64,30.30,30.22,30.06,6,6,6,10,5,,0.01,3,,289
2012-11-7,52,48,44,46,43,42,97,79,66,30.36,30.29,30.21,6,6,6,13,7,,0.00,5,Rain,246
2012-11-8,55,49,43,49,46,43,100,88,65,30.21,30.11,30.04,6,6,4,9,5,,0.00,5,,235
2012-11-9,51,48,44,48,45,41,100,85,69,30.04,29.74,29.50,6,6,6,13,6,,0.08,6,Rain,191
2012-11-10,52,47,37,46,42,37,100,84,54,29.50,29.45,29.42,6,6,6,13,4,25,0.01,2,Rain,251
2012-11-11,52,42,31,45,41,31,100,86,61,30.09,29.99,29.86,6,6,6,9,3,,0.01,1,,273
2012-11-12,58,52,46,55,50,44,100,93,83,30.24,30.14,30.09,6,6,5,12,8,,0.08,4,Rain,198
2012-11-13,57,54,51,54,51,50,99,89,79,30.30,30.28,30.21,6,6,6,13,8,,0.01,6,Rain,182
2012-11-14,55,46,38,51,46,37,100,89,68,30.27,30.25,30.21,6,6,5,10,5,,0.00,3,,108
2012-11-15,50,44,37,47,44,37,100,91,81,30.24,30.13,30.06,6,4,3,7,4,,0.00,6,,50
2012-11-16,55,50,46,55,50,45,100,97,93,30.04,29.85,29.71,4,3,1,12,5,,0.01,6,Rain,127
2012-11-17,53,46,36,54,46,36,100,89,66,29.86,29.78,29.68,6,6,1,10,6,,0.00,3,Rain,301
2012-11-18,50,40,29,43,38,29,100,81,55,29.98,29.96,29.92,6,6,1,8,3,,0.01,1,Fog,168
2012-11-19,55,52,50,55,50,42,100,90,64,29.77,29.72,29.68,6,4,2,24,16,31,0.08,6,Rain,180
2012-11-20,58,54,49,57,53,48,100,94,82,29.74,29.68,29.59,6,4,2,24,13,36,0.51,5,Rain,172
2012-11-21,53,48,44,52,45,41,100,89,71,29.95,29.80,29.53,6,6,4,20,11,24,0.63,3,Rain,253
2012-11-22,55,50,44,51,48,43,94,86,81,29.89,29.71,29.59,6,5,3,34,20,48,0.31,5,Rain,197
2012-11-23,53,44,34,46,41,34,100,90,68,29.98,29.89,29.71,6,6,6,10,4,,0.00,1,Fog,202
2012-11-24,52,42,33,52,46,34,100,97,92,29.98,29.72,29.39,6,5,4,22,9,,0.67,6,Rain,88
2012-11-25,53,48,44,50,46,38,97,85,71,29.74,29.62,29.50,6,6,2,30,14,41,0.08,5,Rain,194
2012-11-26,50,46,41,45,43,39,100,89,80,29.62,29.51,29.39,6,6,6,18,7,,0.02,3,Rain,316
2012-11-27,46,44,42,43,40,37,93,80,66,29.95,29.77,29.59,6,6,6,20,13,,0.00,5,Rain,352
2012-11-28,45,39,33,37,34,30,90,74,60,30.06,30.01,29.95,6,6,6,15,10,,0.00,3,,341
2012-11-29,44,35,26,34,30,25,100,85,62,30.04,29.95,29.89,,,,9,3,,0.00,,,322
2012-11-30,42,34,26,38,33,25,100,92,76,29.98,29.91,29.86,6,6,6,2,0,,0.01,3,Rain,27